Location: Pabrico
(37.5827°N, 122.0063°W)
Time: 15:12:46
(UTC+00:00)

Daily predictions for brighter satellites

Satellite Brightness Start Highest point End
(mag) Time Altitude Azimuth Time Altitude Azimuth Time Altitude Azimuth
USA-17 4.5 12:02:47 10° NW 12:06:05 69° WSW 12:10:20 10° SSE
YAOGAN 6 2.5 12:03:37 10° N 12:06:49 51° WNW 12:07:11 48° WSW
H-2A R/B 3.4 12:02:30 10° NNE 12:07:10 38° E 12:11:55 10° SSE
Cosmos 1805 3.0 12:04:15 10° NNW 12:07:57 69° W 12:10:49 16° S
Cosmos 1151 Rocket 4.0 12:09:51 27° W 12:10:05 27° WNW 12:13:45 10° NNW
NOSS 2-2 (E) 4.3 12:10:01 10° NW 12:15:03 65° WSW 12:22:13 10° SSE
Cosmos 1553 Rocket 3.9 12:09:54 10° N 12:16:12 80° W 12:22:21 10° S
Cosmos 1867 4.1 12:12:21 10° NW 12:17:15 34° WSW 12:22:07 10° S
DMSP B5D2-2 4.0 12:12:57 10° S 12:18:09 81° WSW 12:23:22 10° NNW
Iridium 51 3.8 12:15:54 10° S 12:19:20 86° E 12:22:41 10° N
Cosmos 2112 Rocket 4.3 12:16:49 23° SW 12:19:52 48° WNW 12:25:03 10° N
Cosmos 1515 Rocket 3.9 12:17:03 10° S 12:21:26 68° E 12:25:51 10° NNE
Cosmos 921 Rocket 3.0 12:19:17 22° SW 12:21:49 57° WNW 12:26:03 10° N
Cosmos 1461 2.7 12:18:50 10° NW 12:22:33 50° WSW 12:26:13 10° SSE
NOSS 2-2 (D) 4.2 12:23:59 10° NW 12:28:55 68° WSW 12:36:00 10° SSE
Cosmos 1470 Rocket 3.6 12:25:19 10° N 12:29:43 81° E 12:34:08 10° S
Cosmos 2278 Rocket 2.8 12:27:20 10° NW 12:32:17 32° WSW 12:37:13 10° SSW
USA 308 2.6 12:32:13 18° SW 12:34:56 77° SE 12:38:51 10° NE
SL-16 R/B 4.2 12:36:05 12° W 12:36:05 12° W 12:38:08 10° WNW
Cosmos 1939 Rocket 3.7 12:32:14 10° NNE 12:35:54 49° E 12:39:34 10° S
Chandra Rocket (1) 3.5 12:33:51 14° SSW 12:36:09 27° SSE 12:42:25 10° ESE
IRS-1D 4.2 12:31:40 10° N 12:36:16 36° WNW 12:40:23 13° SW
CRYOSAT 2 4.4 12:38:14 10° N 12:43:02 61° W 12:47:49 10° SSW
Cosmos 1666 Rocket 4.3 12:39:13 10° NNW 12:43:12 33° W 12:47:08 10° SSW
Cosmos 1048 Rocket 4.1 12:39:14 10° SSW 12:44:34 85° ESE 12:49:53 10° NNE
ATLAS 2AS CENTAUR R/B 3.0 12:37:48 12° SW 12:44:45 60° NW 12:51:54 10° NNE
YAOGAN 11 4.5 12:41:02 10° SSE 12:45:28 73° ENE 12:49:59 10° N
Cosmos 1975 3.7 12:42:29 10° NNW 12:45:44 26° W 12:49:00 10° SSW
SL-16 R/B 2.3 12:40:48 10° SW 12:46:21 60° WNW 12:51:58 10° NNE
Cosmos 1766 3.0 12:43:06 10° N 12:46:48 77° W 12:50:27 10° S
ARGOS 4.3 12:46:47 10° NNE 12:51:57 45° E 12:57:02 10° S
Cosmos 1674 2.3 12:48:54 10° S 12:52:19 79° W 12:55:45 10° N
KORONAS-FOTON 3.7 12:50:04 10° S 12:53:44 86° E 12:57:24 10° N
Cosmos 1933 Rocket 3.7 12:52:43 10° N 12:57:06 82° E 13:01:25 10° S
ARIANE 5 R/B 3.4 12:52:30 10° NNE 12:57:38 55° E 13:02:44 10° S
Cosmos 1484 Rocket 3.1 12:57:02 10° N 13:00:26 40° WNW 13:03:47 10° SW
Cosmos 1656 Rocket 4.3 12:57:18 10° NNW 13:02:40 61° ENE 13:08:01 10° SE
Cosmos 2056 Rocket 4.0 12:58:02 10° NNW 13:03:04 40° WSW 13:08:05 10° S
Cosmos 1340 4.0 13:02:18 10° NW 13:04:36 17° W 13:06:55 10° SW
Cosmos 494 Rocket 4.5 13:03:53 10° SW 13:08:45 41° WNW 13:13:36 10° N
Cosmos 1452 Rocket 4.1 13:05:06 10° NNW 13:10:20 64° ENE 13:15:31 10° SSE
